Regional Weather Roundup
Issued by NWS Sioux Falls, SD

Home | Current Version | Previous Version | Graphics & Text | Print | Product List | Glossary On
Versions: 1 2 3 4 5 6 7 8 9 10 11 12 13 14 15 16 17 18 19 20 21 22 23 24 25 26 27 28 29 30 31 32 33 34 35 36 37 38 39 40 41 42 43 44 45 46 47 48 49 50
000
ASUS43 KFSD 261010
RWRFSD

WEATHER ROUNDUP FOR SE SOUTH DAKOTA/SW MINNESOTA/NW IOWA
NATIONAL WEATHER SERVICE SIOUX FALLS SD
500 AM CDT SUN APR 26 2015

NOTE: "FAIR" INDICATES FEW OR NO CLOUDS BELOW 12,000 FEET WITH NO
SIGNIFICANT WEATHER AND OR OBSTRUCTIONS TO VISIBILITY.


SDZ038>040-050-052>070-261100-
SOUTHEAST SOUTH DAKOTA

CITY           SKY/WX    TMP DP  RH WIND       PRES   REMARKS
BROOKINGS      PTCLDY    36  34  93 NE8       30.02R
CHAMBERLAIN    CLOUDY    46  41  84 SE6       29.97R
HURON          PTCLDY    38  36  92 CALM      30.00R
MADISON        FAIR      32  32 100 N3        30.00R
MITCHELL       PTCLDY    41  39  93 E6        30.00R
SIOUX FALLS    PTCLDY    36  33  89 E5        29.98R
WINNER         CLOUDY    50  42  74 E8        29.93F
YANKTON        PTCLDY    43  37  81 NE6       29.98R
$$

MNZ071-072-080-081-089-090-097-098-261100-
SOUTHWEST MINNESOTA

CITY           SKY/WX    TMP DP  RH WIND       PRES   REMARKS
FAIRMONT       CLEAR     36  28  75 N6        29.99R
JACKSON        CLEAR     34  32  93 CALM      30.00R
LUVERNE        CLEAR     36  34  93 CALM      30.00S
MARSHALL       CLEAR     37  27  65 E5        30.01R
MONTEVIDEO     CLEAR     32  27  80 CALM      30.04R
REDWOOD FALLS  CLEAR     37  26  64 NE5       30.02R
TRACY          CLEAR     36  31  85 CALM      30.01R
WORTHINGTON    CLEAR     34  30  86 N3        30.01R
$$

IAZ001>003-012>014-020>022-031-032-NEZ013-014-SDZ071-261100-
NORTHWEST IOWA

CITY           SKY/WX    TMP DP  RH WIND       PRES   REMARKS
CHEROKEE       PTCLDY    34  34  99 NE5       29.99R WCI  30
DENISON        PTCLDY    41  41 100 NE6       29.94S
ESTHERVILLE    CLEAR     32  31  96 N5        29.99R FOG     WCI  27
LE MARS        PTCLDY    41  37  87 CALM      29.98S
ORANGE CITY    PTCLDY    37  36  93 E3        29.98S
SHELDON        CLEAR     32  32 100 NE8       29.98S WCI  25
SIOUX CITY     PTCLDY    43  36  76 E6        29.97S
SPENCER        PTCLDY    32  30  92 N3        30.00R FOG
STORM LAKE     PTCLDY    39  37  93 E5        29.99R
$$

ABBREVIATIONS USED IN REMARKS
   TC - TEMPERATURE IN CELSIUS
  WCI - WIND CHILL INDEX
   HX - HEAT INDEX
  VSB - VISIBILITY



USA.gov is the U.S. government's official web portal to all federal, state and local government web resources and services.